STARLINK-36070 (66864 NORAD) Tracking and Keplerian Element Data

This shows tracking and keplerian element data for the satellite.

Feedback or suggestion? Click here.




ElementValue
Catalog66864
NameSTARLINK-36070
Epoch Orbit263
Epoch Day354.25003472
Epoch Year2025
RAAN76.3196
Inclination43.0008
Eccentricity8.37E-05
Argument of Perigee266.7007
Mean Anonmoly248.2555
Mean Motion15.75431675
Decay Rate-0.01735502
L11 66864U 25281S 25354.25003472 -.01735502 00000+0 -12603-1 0 9997
L22 66864 43.0008 76.3196 0000837 266.7007 248.2555 15.75431675 2631



Live tracking and technical data element details for STARLINK-36070 (NORAD 66864). STARLINK-36070 can be tracked NOW for your location showing map with azimuth and elevation plus other details from your city location.







IsCatalogInMostPopularTable: catalog: 66864, numindb: 23
Update: records affected: 1



GetName: 66864 STARLINK-36070

Hit Count: updated at: Thu, 21 May 2026 10:40:03 GMT